KOCW Airport (Washington-Warren) Information

FAA: OCW - ICAO: KOCW

KOCW Airport Location

State North Carolina
County Beaufort
City Washington
KOCW Airport is 0 miles northeast of Washington, NC.
Latitude 35-34-13.7000N
Longitude 077-02-59.3000W
Elevation 37ft

KOCW Airport METARs

METAR KOCW 251635Z AUTO 16008KT 10SM CLR 22/17 A2995 RMK AO2 T02200165
Altimeter 29.95"
Temperature 22.0°C (71.6°F)
Wind 160° at 8KT
Clouds Skies are clear.
Visibility 10.0mi
Time observed: 2021-10-25T16:35:00Z

KOCW Airport Details

Status Operational
Activation July 1942
Ownership Public
Usage Public
Chart CHARLOTTE
ATC on-site No
Beacon schedule sunset-sunrise
Beacon color clear green

KOCW Airport Contacts

Owner CITY OF WASHINGTON
Owner address PO BOX 1988, WASHINGTON, NC 27889
Owner phone 252-975-9302
Manager DEAN COSMOS
Manager address VIDANT EDGECOMBE HOSPITAL, 111 HOSPITAL DRIVE, TARBORO, NC 27886
Manager phone 252-641-7142

KOCW Airport (Washington-Warren) Radio Frequencies

KOCW (Airport) Radio Frequencies

UNICOM 122.7
Common traffic advisory frequency (CTAF) 122.7